GW1337 Weather Reports


time (UTC)temp
C
wind
direction
speed
KPH
gust
KPH
rain 1hr
cm
rain 24hr
cm
rain mn
cm
humidity
%
barometer
mb
20260504110503 10 64 1.6 1.6 0.00 0.00 0.00 86 1016.3
20260504100425 8 86 1.6 1.6 0.00 0.00 0.00 86 1016.7
20260504081818 7 67 0.0 1.6 0.00 0.00 0.00 83 1016.7
20260504081314 7 67 0.0 0.0 0.00 0.00 0.00 83 1016.6
20260504080810 7 67 0.0 0.0 0.00 0.00 0.00 83 1016.7
20260504080308 7 67 0.0 1.6 0.00 0.00 0.00 82 1016.7
20260504070235 8 68 0.0 1.6 0.00 0.00 0.00 81 1016.6
20260504060155 8 69 0.0 0.0 0.00 0.00 0.00 76 1016.8
20260504050623 8 75 0.0 0.0 0.00 0.00 0.00 72 1016.9
20260504050120 8 76 0.0 0.0 0.00 0.00 0.00 72 1016.7
20260504045618 8 76 0.0 1.6 0.00 0.00 0.00 74 1016.7
20260504045112 8 75 0.0 0.0 0.00 0.00 0.00 75 1016.5
20260504044610 8 70 0.0 0.0 0.00 0.00 0.00 74 1016.9
20260504044107 7 70 0.0 0.0 0.00 0.00 0.00 74 1016.7
20260504043604 7 70 0.0 1.6 0.00 0.00 0.00 75 1016.5
20260504043101 7 70 0.0 1.6 0.00 0.00 0.00 75 1016.5
20260504042558 7 70 0.0 0.0 0.00 0.00 0.00 75 1016.5
20260504042055 7 70 0.0 0.0 0.00 0.00 0.00 75 1016.3
20260504041551 7 70 0.0 0.0 0.00 0.00 0.00 76 1016.3
20260504041047 7 70 0.0 0.0 0.00 0.00 0.00 76 1016.2
20260504040545 7 71 0.0 0.0 0.00 0.00 0.00 76 1016.4
20260504040041 7 71 0.0 0.0 0.00 0.00 0.00 75 1016.1
20260504035538 7 71 0.0 0.0 0.00 0.00 0.00 74 1016.0
20260504035034 7 71 0.0 0.0 0.00 0.00 0.00 74 1016.1
20260504034533 8 70 0.0 0.0 0.00 0.00 0.00 76 1016.1
20260504034029 8 70 0.0 0.0 0.00 0.00 0.00 76 1016.1
20260504033527 8 70 0.0 0.0 0.00 0.00 0.00 73 1016.0
20260504033024 8 70 0.0 0.0 0.00 0.00 0.00 73 1016.0
20260504032521 8 69 0.0 0.0 0.00 0.00 0.00 72 1016.0
20260504032018 8 68 0.0 0.0 0.00 0.00 0.00 74 1015.9
20260504031515 8 67 0.0 0.0 0.00 0.00 0.00 72 1015.9
20260504031011 8 67 0.0 0.0 0.00 0.00 0.00 74 1015.9
20260504030508 8 67 0.0 0.0 0.00 0.00 0.00 72 1015.8
20260504030004 8 67 0.0 0.0 0.00 0.00 0.00 71 1015.9
20260504025501 8 67 0.0 0.0 0.00 0.00 0.00 69 1016.0
20260504024958 8 67 0.0 1.6 0.00 0.00 0.00 71 1016.1
20260504024455 8 67 0.0 0.0 0.00 0.00 0.00 70 1015.9
20260504023952 8 67 0.0 0.0 0.00 0.00 0.00 68 1015.8
20260504023449 8 67 0.0 0.0 0.00 0.00 0.00 69 1015.9
20260504022944 8 67 0.0 0.0 0.00 0.00 0.00 71 1015.8
20260504022441 8 67 0.0 0.0 0.00 0.00 0.00 70 1016.0
20260504021937 8 67 0.0 0.0 0.00 0.00 0.00 70 1015.7
20260504021435 9 67 0.0 0.0 0.00 0.00 0.00 70 1015.9
20260504020932 9 67 0.0 0.0 0.00 0.00 0.00 68 1015.9
20260504020428 9 67 0.0 0.0 0.00 0.00 0.00 64 1015.9
20260504015925 9 67 0.0 0.0 0.00 0.00 0.00 63 1015.8
20260504015421 9 67 0.0 0.0 0.00 0.00 0.00 64 1015.9
20260504014917 10 67 0.0 0.0 0.00 0.00 0.00 67 1016.0
20260504014414 10 67 0.0 0.0 0.00 0.00 0.00 65 1015.8
20260504013910 10 67 0.0 0.0 0.00 0.00 0.00 62 1015.7
20260504013409 10 67 0.0 0.0 0.00 0.00 0.00 61 1015.9
20260504012905 10 67 0.0 0.0 0.00 0.00 0.00 65 1015.8
20260504012403 10 67 0.0 0.0 0.00 0.00 0.00 63 1015.5
20260504011900 10 67 0.0 0.0 0.00 0.00 0.00 60 1015.7
20260504011357 10 67 0.0 0.0 0.00 0.00 0.00 63 1015.6
20260504010852 11 67 0.0 0.0 0.00 0.00 0.00 61 1015.4
20260504010348 11 67 0.0 0.0 0.00 0.00 0.00 62 1015.4
20260504005845 11 67 0.0 0.0 0.00 0.00 0.00 57 1015.4
20260504005342 11 67 0.0 0.0 0.00 0.00 0.00 56 1015.3
20260504004839 11 67 0.0 0.0 0.00 0.00 0.00 56 1015.2
20260504004337 11 67 0.0 0.0 0.00 0.00 0.00 54 1015.2
20260504003833 11 67 0.0 0.0 0.00 0.00 0.00 59 1015.1
20260504003330 12 67 0.0 0.0 0.00 0.00 0.00 55 1015.2
20260504002827 12 67 0.0 0.0 0.00 0.00 0.00 55 1015.0
20260504002323 12 67 0.0 0.0 0.00 0.00 0.00 52 1015.0
20260504001821 12 67 0.0 0.0 0.00 0.00 0.00 55 1015.0
20260504001318 12 67 0.0 0.0 0.00 0.00 0.00 49 1014.8
20260504000815 12 67 0.0 0.0 0.00 0.00 0.00 52 1014.7
20260504000312 13 67 0.0 0.0 0.00 0.00 0.00 48 1014.7
20260503235810 13 67 0.0 0.0 0.00 0.00 0.00 45 1014.7
20260503235307 13 67 0.0 0.0 0.00 0.00 0.00 46 1014.6
20260503234805 13 67 0.0 0.0 0.00 0.00 0.00 45 1014.5
20260503234303 13 66 0.0 1.6 0.00 0.00 0.00 43 1014.8
20260503233800 14 88 0.0 0.0 0.00 0.00 0.00 44 1014.5
20260503233255 14 88 0.0 0.0 0.00 0.00 0.00 42 1014.6
20260503232753 15 89 0.0 1.6 0.00 0.00 0.00 41 1014.5
20260503232250 15 64 0.0 1.6 0.00 0.00 0.00 41 1014.5
20260503231748 15 76 0.0 0.0 0.00 0.00 0.00 42 1014.4
20260503231245 15 45 1.6 3.2 0.00 0.00 0.00 39 1014.6
20260503230740 15 75 0.0 0.0 0.00 0.00 0.00 39 1014.7
20260503230238 15 20 1.6 3.2 0.00 0.00 0.00 39 1014.4
20260503225735 15 89 1.6 1.6 0.00 0.00 0.00 39 1014.5
20260503225235 15 91 1.6 3.2 0.00 0.00 0.00 37 1014.4
20260503224732 15 46 0.0 3.2 0.00 0.00 0.00 38 1014.4
20260503224230 15 57 0.0 3.2 0.00 0.00 0.00 37 1014.5
20260503223727 15 124 1.6 3.2 0.00 0.00 0.00 37 1014.6
20260503223225 15 50 0.0 1.6 0.00 0.00 0.00 39 1014.4
20260503222721 16 60 0.0 3.2 0.00 0.00 0.00 40 1014.4
20260503222219 16 93 0.0 1.6 0.00 0.00 0.00 38 1014.5
20260503221717 16 62 1.6 3.2 0.00 0.00 0.00 40 1014.4
20260503221214 16 86 0.0 3.2 0.00 0.00 0.00 36 1014.3
20260503180915 16 345 4.8 8.0 0.00 0.00 0.00 36 1015.7
20260503180414 16 345 4.8 8.0 0.00 0.00 0.00 36 1015.7
20260503175910 16 4 1.6 3.2 0.00 0.00 0.00 40 1015.5
20260503175409 16 17 4.8 4.8 0.00 0.00 0.00 38 1015.6
20260503174904 16 4 1.6 4.8 0.00 0.00 0.00 43 1015.8
20260503174402 16 24 4.8 4.8 0.00 0.00 0.00 36 1015.8
20260503173857 16 104 1.6 3.2 0.00 0.00 0.00 37 1015.8
20260503173353 16 84 0.0 8.0 0.00 0.00 0.00 39 1016.0
20260503172850 16 17 1.6 1.6 0.00 0.00 0.00 36 1015.5
20260503172348 16 13 1.6 3.2 0.00 0.00 0.00 40 1016.0
20260503171844 15 357 1.6 4.8 0.00 0.00 0.00 42 1016.1
20260503171341 15 55 0.0 1.6 0.00 0.00 0.00 44 1016.2
20260503170838 14 32 1.6 4.8 0.00 0.00 0.00 39 1016.1
20260503170334 15 10 3.2 3.2 0.00 0.00 0.00 39 1016.0
20260503150727 12 51 0.0 1.6 0.00 0.00 0.00 52 1016.4
20260503150223 12 39 1.6 1.6 0.00 0.00 0.00 51 1016.4
20260503140147 10 84 1.6 4.8 0.00 0.00 0.00 57 1016.6
20260503131117 8 53 1.6 4.8 0.00 0.00 0.00 61 1016.2
20260503130614 8 36 3.2 4.8 0.00 0.00 0.00 63 1016.1
20260503130112 8 72 1.6 1.6 0.00 0.00 0.00 65 1016.0